Check out our new BloomSky Weather System.

Active alerts

Fort Bend, TX
  Details for Fort Bend, TX Special Weather Statement


Thunder radar  blitzortung!


Rain radar more information rain snow radar


Visit our other weather sites:

Template documentation
and downloads

And another site



Weather Underground History page Text

Daily Summary for June 15, 2017 Units:  Metric    English   Both
« Previous Day
Next Day »
Daily Weekly Monthly Yearly Custom
  High: Low: Average:
Temperature: -17.8 °C 24.9 °C 29.6 °C
Dew Point: -17.8 °C 23.4 °C 24.4 °C
Humidity: Humidity % 52 % 75 %
Wind Speed: 0 km/h 0 km/h 5.8 km/h
Wind Gust: 0 km/h - -
Wind:- - SSE
Pressure: 0 hPa 1011.1 hPa -
Precipitation: 0 mm    
Historical Graphs
 
 
Tabular Data for June 15, 2017
Time Temperature Dew Point Pressure Wind Wind Speed Wind Gust Humidity Rainfall Rate (Hourly)
-17.8 °C -17.8 °C 0 hPa Calm     Humidity % 0 mm
00:03 27 °C 24.6 °C 1014.8 hPa SE 3.2 km/h 6.4 km/h 87 % 0 mm
00:08 27 °C 24.6 °C 1014.8 hPa South 8 km/h 8 km/h 87 % 0 mm
00:13 26.9 °C 24.5 °C 1014.8 hPa SE 3.2 km/h 8 km/h 87 % 0 mm
00:18 26.9 °C 24.5 °C 1014.8 hPa SE 6.4 km/h 8 km/h 87 % 0 mm
00:23 26.9 °C 24.5 °C 1014.8 hPa SE 3.2 km/h 9.7 km/h 87 % 0 mm
00:28 26.8 °C 24.5 °C 1014.8 hPa South 3.2 km/h 9.7 km/h 87 % 0 mm
00:33 26.8 °C 24.6 °C 1014.8 hPa SSE 4.8 km/h 9.7 km/h 88 % 0 mm
00:38 26.8 °C 24.6 °C 1014.4 hPa SE 3.2 km/h 8 km/h 88 % 0 mm
00:43 26.7 °C 24.5 °C 1014.4 hPa South 4.8 km/h 8 km/h 88 % 0 mm
00:48 26.7 °C 24.5 °C 1014.4 hPa SE 3.2 km/h 8 km/h 88 % 0 mm
00:53 26.6 °C 24.4 °C 1014.4 hPa SE 4.8 km/h 8 km/h 88 % 0 mm
00:58 26.5 °C 24.5 °C 1014.1 hPa South 4.8 km/h 8 km/h 89 % 0 mm
01:03 26.5 °C 24.5 °C 1014.1 hPa SE 3.2 km/h 8 km/h 89 % 0 mm
01:08 26.4 °C 24.4 °C 1014.1 hPa SSE 1.6 km/h 6.4 km/h 89 % 0 mm
01:13 26.4 °C 24.4 °C 1014.1 hPa South 4.8 km/h 8 km/h 89 % 0 mm
01:18 26.4 °C 24.4 °C 1014.1 hPa ESE 4.8 km/h 12.9 km/h 89 % 0 mm
01:23 26.4 °C 24.4 °C 1014.1 hPa SSE 4.8 km/h 12.9 km/h 89 % 0 mm
01:28 26.4 °C 24.4 °C 1013.8 hPa SSE 6.4 km/h 12.9 km/h 89 % 0 mm
01:33 26.4 °C 24.4 °C 1013.8 hPa South 4.8 km/h 11.3 km/h 89 % 0 mm
01:43 26.4 °C 24.6 °C 1013.8 hPa SSE 6.4 km/h 9.7 km/h 90 % 0 mm
01:48 26.4 °C 24.6 °C 1013.8 hPa ESE 3.2 km/h 9.7 km/h 90 % 0 mm
01:53 26.3 °C 24.5 °C 1013.8 hPa ESE 3.2 km/h 9.7 km/h 90 % 0 mm
01:58 26.2 °C 24.4 °C 1013.8 hPa ESE 3.2 km/h 9.7 km/h 90 % 0 mm
02:03 26.2 °C 24.4 °C 1013.4 hPa SE 6.4 km/h 11.3 km/h 90 % 0 mm
02:08 26.2 °C 24.4 °C 1013.4 hPa SSE 3.2 km/h 11.3 km/h 90 % 0 mm
02:13 26.2 °C 24.6 °C 1013.4 hPa South 3.2 km/h 11.3 km/h 91 % 0 mm
02:18 26.1 °C 24.5 °C 1013.4 hPa SE 9.7 km/h 9.7 km/h 91 % 0 mm
02:23 26.1 °C 24.5 °C 1013.4 hPa SSE 3.2 km/h 9.7 km/h 91 % 0 mm
02:28 26.1 °C 24.5 °C 1013.4 hPa ESE 3.2 km/h 9.7 km/h 91 % 0 mm
02:33 26.1 °C 24.5 °C 1013.4 hPa SSE 1.6 km/h 9.7 km/h 91 % 0 mm
02:38 26 °C 24.4 °C 1013.4 hPa SE 1.6 km/h 9.7 km/h 91 % 0 mm
02:43 25.9 °C 24.3 °C 1013.4 hPa SE 3.2 km/h 9.7 km/h 91 % 0 mm
02:48 25.9 °C 24.5 °C 1013.1 hPa SSE 3.2 km/h 8 km/h 92 % 0 mm
02:53 25.9 °C 24.5 °C 1013.4 hPa SSE 3.2 km/h 6.4 km/h 92 % 0 mm
02:58 25.9 °C 24.5 °C 1013.4 hPa SSW 1.6 km/h 6.4 km/h 92 % 0 mm
03:03 25.9 °C 24.5 °C 1013.4 hPa SSE 3.2 km/h 6.4 km/h 92 % 0 mm
03:08 25.9 °C 24.5 °C 1013.4 hPa South 3.2 km/h 6.4 km/h 92 % 0 mm
03:13 25.8 °C 24.4 °C 1013.1 hPa South 3.2 km/h 8 km/h 92 % 0 mm
03:18 25.8 °C 24.4 °C 1013.4 hPa South 1.6 km/h 8 km/h 92 % 0 mm
03:23 25.8 °C 24.4 °C 1013.4 hPa SSE 4.8 km/h 8 km/h 92 % 0 mm
03:29 25.8 °C 24.6 °C 1013.4 hPa SE 4.8 km/h 6.4 km/h 93 % 0 mm
03:34 25.8 °C 24.6 °C 1013.1 hPa SE 1.6 km/h 6.4 km/h 93 % 0 mm
03:39 25.7 °C 24.5 °C 1013.4 hPa SE 3.2 km/h 6.4 km/h 93 % 0 mm
03:44 25.7 °C 24.5 °C 1013.4 hPa SSW 1.6 km/h 6.4 km/h 93 % 0 mm
03:49 25.7 °C 24.5 °C 1013.4 hPa South 3.2 km/h 6.4 km/h 93 % 0 mm
03:54 25.7 °C 24.5 °C 1013.4 hPa Calm   6.4 km/h 93 % 0 mm
03:59 25.7 °C 24.5 °C 1013.8 hPa SE 3.2 km/h 6.4 km/h 93 % 0 mm
04:04 25.7 °C 24.5 °C 1013.4 hPa South 3.2 km/h 6.4 km/h 93 % 0 mm
04:09 25.7 °C 24.5 °C 1013.8 hPa SSE 1.6 km/h 4.8 km/h 93 % 0 mm
04:14 25.6 °C 24.4 °C 1013.8 hPa SSE 1.6 km/h 4.8 km/h 93 % 0 mm
04:19 25.6 °C 24.4 °C 1013.8 hPa South 1.6 km/h 4.8 km/h 93 % 0 mm
04:24 25.6 °C 24.6 °C 1013.4 hPa SSE 1.6 km/h 4.8 km/h 94 % 0 mm
04:29 25.5 °C 24.5 °C 1013.4 hPa SSE 3.2 km/h 4.8 km/h 94 % 0 mm
04:34 25.4 °C 24.4 °C 1013.4 hPa Calm   3.2 km/h 94 % 0 mm
04:39 25.4 °C 24.4 °C 1013.8 hPa South 1.6 km/h 4.8 km/h 94 % 0 mm
04:44 25.4 °C 24.4 °C 1013.8 hPa Calm   4.8 km/h 94 % 0 mm
04:49 25.3 °C 24.3 °C 1013.8 hPa Calm   4.8 km/h 94 % 0 mm
04:54 25.2 °C 24.2 °C 1013.8 hPa Calm   3.2 km/h 94 % 0 mm
04:59 25.1 °C 24.1 °C 1013.8 hPa Calm   3.2 km/h 94 % 0 mm
05:01 25.1 °C 24.1 °C 1013.8 hPa Calm   1.6 km/h 94 % 0 mm
05:06 25.1 °C 24.2 °C 1013.8 hPa SSW 3.2 km/h 3.2 km/h 95 % 0 mm
05:11 25.1 °C 24.2 °C 1013.8 hPa Calm   3.2 km/h 95 % 0 mm
05:21 25.1 °C 24.2 °C 1013.8 hPa Calm   3.2 km/h 95 % 0 mm
05:26 25.1 °C 24.2 °C 1013.8 hPa SSW 1.6 km/h 3.2 km/h 95 % 0 mm
05:31 25 °C 24.1 °C 1013.8 hPa Calm   3.2 km/h 95 % 0 mm
05:36 25 °C 24.1 °C 1013.8 hPa Calm   1.6 km/h 95 % 0 mm
05:41 24.9 °C 24 °C 1013.8 hPa South 1.6 km/h 3.2 km/h 95 % 0 mm
05:46 24.9 °C 24 °C 1013.8 hPa Calm   3.2 km/h 95 % 0 mm
05:51 24.9 °C 24 °C 1013.8 hPa Calm   3.2 km/h 95 % 0 mm
05:56 24.9 °C 24 °C 1013.8 hPa Calm   3.2 km/h 95 % 0 mm
06:01 24.9 °C 24 °C 1013.8 hPa SSW 1.6 km/h 3.2 km/h 95 % 0 mm
06:06 24.9 °C 24 °C 1013.8 hPa SSE 1.6 km/h 3.2 km/h 95 % 0 mm
06:11 24.9 °C 24 °C 1013.8 hPa Calm   3.2 km/h 95 % 0 mm
06:16 24.9 °C 24 °C 1013.8 hPa Calm   3.2 km/h 95 % 0 mm
06:21 24.9 °C 24 °C 1013.8 hPa Calm   3.2 km/h 95 % 0 mm
06:26 24.9 °C 24 °C 1013.8 hPa Calm   3.2 km/h 95 % 0 mm
06:31 24.9 °C 24.2 °C 1013.8 hPa Calm   3.2 km/h 96 % 0 mm
06:36 24.9 °C 24.2 °C 1013.8 hPa South 3.2 km/h 4.8 km/h 96 % 0 mm
06:41 24.9 °C 24 °C 1013.8 hPa ESE 3.2 km/h 4.8 km/h 95 % 0 mm
06:52 25.1 °C 24.4 °C 1013.8 hPa SE 3.2 km/h 6.4 km/h 96 % 0 mm
06:57 25.1 °C 24.2 °C 1013.8 hPa SE 3.2 km/h 6.4 km/h 95 % 0 mm
07:02 25.2 °C 24.3 °C 1013.8 hPa SSW 3.2 km/h 6.4 km/h 95 % 0 mm
07:07 25.2 °C 24.3 °C 1013.8 hPa SSW 4.8 km/h 4.8 km/h 95 % 0 mm
07:12 25.3 °C 24.4 °C 1013.8 hPa SSW 3.2 km/h 6.4 km/h 95 % 0 mm
07:17 25.3 °C 24.4 °C 1013.8 hPa SSE 3.2 km/h 6.4 km/h 95 % 0 mm
07:22 25.4 °C 24.5 °C 1013.8 hPa SE 3.2 km/h 6.4 km/h 95 % 0 mm
07:27 25.6 °C 24.7 °C 1013.8 hPa SE 3.2 km/h 6.4 km/h 95 % 0 mm
07:32 25.7 °C 24.8 °C 1013.8 hPa SSE 1.6 km/h 4.8 km/h 95 % 0 mm
07:37 25.9 °C 24.9 °C 1014.1 hPa Calm   4.8 km/h 94 % 0 mm
07:42 26 °C 25 °C 1014.1 hPa SSE 3.2 km/h 4.8 km/h 94 % 0 mm
07:47 26.1 °C 24.9 °C 1014.1 hPa ESE 1.6 km/h 4.8 km/h 93 % 0 mm
07:48 26.1 °C 24.9 °C 1014.1 hPa Calm   4.8 km/h 93 % 0 mm
07:53 26.2 °C 25 °C 1014.4 hPa South 3.2 km/h 6.4 km/h 93 % 0 mm
07:58 26.4 °C 25.2 °C 1014.4 hPa SE 3.2 km/h 6.4 km/h 93 % 0 mm
08:03 26.8 °C 25.6 °C 1014.4 hPa SSW 1.6 km/h 6.4 km/h 93 % 0 mm
08:08 27.2 °C 25.8 °C 1014.4 hPa Calm   8 km/h 92 % 0 mm
08:13 27.4 °C 25.8 °C 1014.4 hPa South 4.8 km/h 8 km/h 91 % 0 mm
08:18 27.6 °C 25.6 °C 1014.4 hPa South 4.8 km/h 8 km/h 89 % 0 mm
08:23 27.9 °C 25.9 °C 1014.4 hPa SSE 6.4 km/h 8 km/h 89 % 0 mm
08:28 28.1 °C 25.9 °C 1014.8 hPa SE 3.2 km/h 8 km/h 88 % 0 mm
08:33 28.2 °C 25.8 °C 1014.8 hPa SE 4.8 km/h 12.9 km/h 87 % 0 mm
08:38 28.4 °C 26 °C 1014.8 hPa Calm   12.9 km/h 87 % 0 mm
08:43 28.6 °C 26 °C 1014.8 hPa SSE 6.4 km/h 12.9 km/h 86 % 0 mm
08:48 28.5 °C 25.9 °C 1014.8 hPa SSE 14.5 km/h 14.5 km/h 86 % 0 mm
08:53 28.3 °C 25.9 °C 1014.8 hPa South 4.8 km/h 16.1 km/h 87 % 0 mm
08:58 28.4 °C 25.8 °C 1014.8 hPa South 8 km/h 16.1 km/h 86 % 0 mm
09:03 28.3 °C 25.5 °C 1014.8 hPa SSW 1.6 km/h 16.1 km/h 85 % 0 mm
09:08 28.3 °C 25.7 °C 1015.1 hPa South 4.8 km/h 17.7 km/h 86 % 0 mm
09:13 28.4 °C 25.8 °C 1015.1 hPa SSE 6.4 km/h 17.7 km/h 86 % 0 mm
09:18 28.5 °C 25.9 °C 1015.1 hPa SSE 8 km/h 17.7 km/h 86 % 0 mm
09:23 28.6 °C 25.8 °C 1015.1 hPa South 6.4 km/h 12.9 km/h 85 % 0 mm
09:28 28.7 °C 25.9 °C 1015.1 hPa SSE 4.8 km/h 12.9 km/h 85 % 0 mm
09:33 28.9 °C 25.9 °C 1015.1 hPa SSE 8 km/h 12.9 km/h 84 % 0 mm
09:38 29.2 °C 26 °C 1015.1 hPa SSE 11.3 km/h 16.1 km/h 83 % 0 mm
09:39 29.3 °C 26.1 °C 1015.1 hPa SSW 8 km/h 16.1 km/h 83 % 0 mm
09:44 29.6 °C 26.2 °C 1015.1 hPa South 9.7 km/h 16.1 km/h 82 % 0 mm
09:49 29.7 °C 26.3 °C 1015.1 hPa South 6.4 km/h 16.1 km/h 82 % 0 mm
09:54 30.1 °C 26.3 °C 1015.1 hPa SSW 8 km/h 14.5 km/h 80 % 0 mm
09:59 30.3 °C 26 °C 1015.1 hPa South 4.8 km/h 14.5 km/h 78 % 0 mm
10:04 30.2 °C 25.5 °C 1015.1 hPa SSE 4.8 km/h 14.5 km/h 76 % 0 mm
10:09 30.1 °C 25.4 °C 1015.1 hPa South 11.3 km/h 17.7 km/h 76 % 0 mm
10:14 30 °C 25.7 °C 1015.1 hPa SSE 4.8 km/h 22.5 km/h 78 % 0 mm
10:19 29.9 °C 25.6 °C 1015.1 hPa South 3.2 km/h 22.5 km/h 78 % 0 mm
10:24 30.3 °C 26.2 °C 1015.1 hPa SSE 3.2 km/h 22.5 km/h 79 % 0 mm
10:29 30.7 °C 26.2 °C 1015.1 hPa SSW 3.2 km/h 16.1 km/h 77 % 0 mm
10:34 30.8 °C 25.9 °C 1015.1 hPa SE 4.8 km/h 16.1 km/h 75 % 0 mm
10:39 31.3 °C 26.8 °C 1015.1 hPa SSW 4.8 km/h 14.5 km/h 77 % 0 mm
10:44 31.7 °C 26 °C 1015.1 hPa SSW 6.4 km/h 14.5 km/h 72 % 0 mm
10:49 31.8 °C 25.6 °C 1015.1 hPa SSE 6.4 km/h 14.5 km/h 70 % 0 mm
10:54 31.8 °C 25.6 °C 1015.1 hPa SSW 6.4 km/h 14.5 km/h 70 % 0 mm
10:59 31.8 °C 25.6 °C 1015.1 hPa SSW 9.7 km/h 17.7 km/h 70 % 0 mm
11:04 31.9 °C 25.5 °C 1015.1 hPa SE 6.4 km/h 17.7 km/h 69 % 0 mm
11:09 31.9 °C 25.7 °C 1015.1 hPa SW 1.6 km/h 17.7 km/h 70 % 0 mm
11:14 32.1 °C 25.7 °C 1015.1 hPa SE 9.7 km/h 16.1 km/h 69 % 0 mm
11:19 32.1 °C 25.4 °C 1015.1 hPa ESE 8 km/h 16.1 km/h 68 % 0 mm
11:24 32.2 °C 25.3 °C 1015.1 hPa SSE 11.3 km/h 16.1 km/h 67 % 0 mm
11:29 32.1 °C 25.2 °C 1014.8 hPa SE 8 km/h 19.3 km/h 67 % 0 mm
11:34 32.2 °C 25.3 °C 1015.1 hPa South 14.5 km/h 19.3 km/h 67 % 0 mm
11:39 32.3 °C 25.4 °C 1014.8 hPa ESE 6.4 km/h 19.3 km/h 67 % 0 mm
11:44 32.7 °C 25.8 °C 1015.1 hPa SSE 6.4 km/h 19.3 km/h 67 % 0 mm
11:49 32.9 °C 25.4 °C 1015.1 hPa SSE 4.8 km/h 19.3 km/h 65 % 0 mm
11:54 33.1 °C 25.9 °C 1015.1 hPa SSW 14.5 km/h 19.3 km/h 66 % 0 mm
11:59 33.1 °C 26.4 °C 1015.1 hPa SSE 8 km/h 17.7 km/h 68 % 0 mm
12:04 32.9 °C 25.2 °C 1015.1 hPa SE 8 km/h 17.7 km/h 64 % 0 mm
12:09 32.6 °C 24.9 °C 1015.1 hPa SE 12.9 km/h 16.1 km/h 64 % 0 mm
12:14 32.8 °C 25.6 °C 1015.1 hPa SSE 8 km/h 14.5 km/h 66 % 0 mm
12:20 33.2 °C 25.5 °C 1014.8 hPa WSW 1.6 km/h 14.5 km/h 64 % 0 mm
12:25 33.2 °C 25.2 °C 1014.8 hPa SSW 3.2 km/h 14.5 km/h 63 % 0 mm
12:30 33.3 °C 25.3 °C 1014.8 hPa North 1.6 km/h 14.5 km/h 63 % 0 mm
12:35 33.3 °C 25.3 °C 1014.8 hPa Calm   14.5 km/h 63 % 0 mm
12:40 33.3 °C 24.5 °C 1014.8 hPa SSE 1.6 km/h 12.9 km/h 60 % 0 mm
12:45 33.4 °C 25.1 °C 1014.4 hPa South 4.8 km/h 16.1 km/h 62 % 0 mm
12:50 33.9 °C 25.3 °C 1014.4 hPa SE 16.1 km/h 16.1 km/h 61 % 0 mm
12:55 33.7 °C 24.9 °C 1014.4 hPa SW 4.8 km/h 17.7 km/h 60 % 0 mm
13:00 34.1 °C 24.9 °C 1014.4 hPa SE 6.4 km/h 17.7 km/h 59 % 0 mm
13:05 33.9 °C 24.8 °C 1014.4 hPa SE 6.4 km/h 17.7 km/h 59 % 0 mm
13:10 33.9 °C 24.8 °C 1014.1 hPa SSE 9.7 km/h 17.7 km/h 59 % 0 mm
13:12 34 °C 24.3 °C 1014.4 hPa South 11.3 km/h 17.7 km/h 57 % 0 mm
13:17 34.2 °C 24.5 °C 1014.1 hPa ESE 9.7 km/h 17.7 km/h 57 % 0 mm
13:22 34.2 °C 25 °C 1014.1 hPa South 8 km/h 17.7 km/h 59 % 0 mm
13:27 34.6 °C 24.8 °C 1014.1 hPa SSW 1.6 km/h 17.7 km/h 57 % 0 mm
13:32 34.7 °C 24.6 °C 1014.1 hPa SSE 3.2 km/h 17.7 km/h 56 % 0 mm
13:37 34.6 °C 24.5 °C 1014.1 hPa South 11.3 km/h 16.1 km/h 56 % 0 mm
13:42 34.2 °C 24.5 °C 1014.1 hPa East 8 km/h 16.1 km/h 57 % 0 mm
13:47 34 °C 24.3 °C 1013.8 hPa ESE 3.2 km/h 16.1 km/h 57 % 0 mm
13:52 34.3 °C 25.1 °C 1013.8 hPa South 6.4 km/h 16.1 km/h 59 % 0 mm
13:57 34.6 °C 24.8 °C 1013.8 hPa South 8 km/h 14.5 km/h 57 % 0 mm
14:02 34.7 °C 24.3 °C 1013.8 hPa SSE 3.2 km/h 17.7 km/h 55 % 0 mm
14:07 34.8 °C 24.4 °C 1013.8 hPa ESE 9.7 km/h 17.7 km/h 55 % 0 mm
14:12 34.9 °C 24.2 °C 1013.8 hPa SE 9.7 km/h 17.7 km/h 54 % 0 mm
14:17 34.8 °C 23.8 °C 1013.8 hPa SSE 6.4 km/h 14.5 km/h 53 % 0 mm
14:22 34.8 °C 23.8 °C 1013.8 hPa SE 14.5 km/h 14.5 km/h 53 % 0 mm
14:27 34.7 °C 23.4 °C 1013.8 hPa SSW 3.2 km/h 17.7 km/h 52 % 0 mm
14:32 34.8 °C 24.1 °C 1013.4 hPa South 11.3 km/h 17.7 km/h 54 % 0 mm
14:37 35.1 °C 24.4 °C 1013.4 hPa SE 1.6 km/h 17.7 km/h 54 % 0 mm
14:42 35.2 °C 23.9 °C 1013.4 hPa SSE 8 km/h 16.1 km/h 52 % 0 mm
14:47 34.9 °C 23.6 °C 1013.4 hPa South 6.4 km/h 16.1 km/h 52 % 0 mm
14:52 34.9 °C 23.9 °C 1013.4 hPa SSE 4.8 km/h 16.1 km/h 53 % 0 mm
14:57 34.8 °C 24.1 °C 1013.4 hPa East 8 km/h 14.5 km/h 54 % 0 mm
15:02 34.9 °C 24.2 °C 1013.4 hPa SE 4.8 km/h 14.5 km/h 54 % 0 mm
15:07 35.1 °C 23.8 °C 1013.4 hPa SSE 8 km/h 14.5 km/h 52 % 0 mm
15:12 35 °C 23.7 °C 1013.1 hPa East 8 km/h 17.7 km/h 52 % 0 mm
15:17 35.2 °C 24.2 °C 1013.1 hPa SSW 3.2 km/h 17.7 km/h 53 % 0 mm
15:22 35.5 °C 24.4 °C 1013.1 hPa SSW 9.7 km/h 17.7 km/h 53 % 0 mm
15:27 35.5 °C 24.8 °C 1013.1 hPa SSE 8 km/h 16.1 km/h 54 % 0 mm
15:32 35.2 °C 23.9 °C 1013.1 hPa SE 9.7 km/h 17.7 km/h 52 % 0 mm
15:37 34.8 °C 23.8 °C 1012.8 hPa South 6.4 km/h 17.7 km/h 53 % 0 mm
15:42 34.7 °C 24.3 °C 1012.8 hPa ESE 8 km/h 17.7 km/h 55 % 0 mm
15:47 34.8 °C 23.8 °C 1012.8 hPa SE 8 km/h 17.7 km/h 53 % 0 mm
15:52 34.9 °C 24.2 °C 1012.8 hPa South 8 km/h 14.5 km/h 54 % 0 mm
15:57 34.8 °C 24.7 °C 1012.8 hPa SSW 6.4 km/h 14.5 km/h 56 % 0 mm
16:02 34.8 °C 24.1 °C 1012.8 hPa ESE 11.3 km/h 14.5 km/h 54 % 0 mm
16:07 34.9 °C 23.9 °C 1012.8 hPa SSW 1.6 km/h 14.5 km/h 53 % 0 mm
16:12 34.8 °C 24.1 °C 1012.8 hPa SE 4.8 km/h 16.1 km/h 54 % 0 mm
16:17 35 °C 24.3 °C 1012.8 hPa SSE 3.2 km/h 16.1 km/h 54 % 0 mm
16:22 35.2 °C 24.5 °C 1012.4 hPa SSE 9.7 km/h 16.1 km/h 54 % 0 mm
16:27 34.7 °C 24.6 °C 1012.4 hPa South 8 km/h 17.7 km/h 56 % 0 mm
16:32 34.4 °C 24 °C 1012.4 hPa SE 11.3 km/h 17.7 km/h 55 % 0 mm
16:37 34.2 °C 24.2 °C 1012.4 hPa South 4.8 km/h 17.7 km/h 56 % 0 mm
16:42 34.2 °C 24.2 °C 1012.1 hPa SSE 4.8 km/h 16.1 km/h 56 % 0 mm
16:47 34.1 °C 24.1 °C 1012.1 hPa SSW 4.8 km/h 19.3 km/h 56 % 0 mm
16:52 34.2 °C 25 °C 1012.1 hPa SSE 4.8 km/h 19.3 km/h 59 % 0 mm
16:57 34.2 °C 24.2 °C 1012.1 hPa SSE 8 km/h 19.3 km/h 56 % 0 mm
17:02 34.2 °C 24.2 °C 1012.1 hPa SSE 9.7 km/h 16.1 km/h 56 % 0 mm
17:07 34.3 °C 24.3 °C 1012.1 hPa South 12.9 km/h 16.1 km/h 56 % 0 mm
17:12 34.1 °C 24.4 °C 1012.1 hPa South 12.9 km/h 16.1 km/h 57 % 0 mm
17:17 34.1 °C 24.4 °C 1011.7 hPa SE 6.4 km/h 17.7 km/h 57 % 0 mm
17:22 34.4 °C 24.3 °C 1011.7 hPa SSE 8 km/h 17.7 km/h 56 % 0 mm
17:27 34.5 °C 24.4 °C 1011.7 hPa South 8 km/h 17.7 km/h 56 % 0 mm
17:32 34.5 °C 24.4 °C 1011.7 hPa SE 6.4 km/h 14.5 km/h 56 % 0 mm
17:37 34.4 °C 24.3 °C 1011.7 hPa South 6.4 km/h 14.5 km/h 56 % 0 mm
17:42 34.3 °C 24.6 °C 1011.7 hPa SSW 4.8 km/h 14.5 km/h 57 % 0 mm
17:47 34 °C 24.3 °C 1011.7 hPa SSE 14.5 km/h 14.5 km/h 57 % 0 mm
17:52 33.8 °C 24.4 °C 1011.7 hPa South 11.3 km/h 16.1 km/h 58 % 0 mm
17:58 33.6 °C 24.2 °C 1011.7 hPa SSW 9.7 km/h 17.7 km/h 58 % 0 mm
18:02 33.4 °C 24.3 °C 1011.7 hPa SSE 6.4 km/h 17.7 km/h 59 % 0 mm
18:07 33.3 °C 24.2 °C 1011.7 hPa South 9.7 km/h 17.7 km/h 59 % 0 mm
18:13 33.2 °C 24.1 °C 1011.4 hPa SSE 8 km/h 16.1 km/h 59 % 0 mm
18:17 33.4 °C 24.3 °C 1011.4 hPa SSE 14.5 km/h 17.7 km/h 59 % 0 mm
18:23 33.6 °C 24.2 °C 1011.4 hPa South 14.5 km/h 17.7 km/h 58 % 0 mm
18:28 33.7 °C 24.6 °C 1011.4 hPa SE 14.5 km/h 19.3 km/h 59 % 0 mm
18:33 33.7 °C 24.6 °C 1011.4 hPa SSE 8 km/h 19.3 km/h 59 % 0 mm
18:38 33.4 °C 24.6 °C 1011.1 hPa South 11.3 km/h 20.9 km/h 60 % 0 mm
18:43 33.3 °C 24.8 °C 1011.1 hPa SW 8 km/h 20.9 km/h 61 % 0 mm
18:48 33.2 °C 24.4 °C 1011.1 hPa South 11.3 km/h 20.9 km/h 60 % 0 mm
18:50 33.2 °C 24.4 °C 1011.1 hPa South 8 km/h 19.3 km/h 60 % 0 mm
18:55 33 °C 24.2 °C 1011.1 hPa SSW 8 km/h 19.3 km/h 60 % 0 mm
19:00 32.8 °C 24.3 °C 1011.1 hPa SSE 3.2 km/h 19.3 km/h 61 % 0 mm
19:05 32.9 °C 24.4 °C 1011.1 hPa SSE 9.7 km/h 19.3 km/h 61 % 0 mm
19:10 32.9 °C 24.6 °C 1011.1 hPa South 12.9 km/h 19.3 km/h 62 % 0 mm
19:15 32.8 °C 24.6 °C 1011.1 hPa SSE 8 km/h 20.9 km/h 62 % 0 mm
19:20 32.6 °C 24.4 °C 1011.1 hPa SE 11.3 km/h 20.9 km/h 62 % 0 mm
19:25 32.4 °C 24.4 °C 1011.1 hPa South 11.3 km/h 20.9 km/h 63 % 0 mm
19:30 32.2 °C 24.5 °C 1011.1 hPa SSE 8 km/h 20.9 km/h 64 % 0 mm
19:35 32 °C 24.3 °C 1011.1 hPa SSW 6.4 km/h 20.9 km/h 64 % 0 mm
19:40 31.8 °C 24.4 °C 1011.1 hPa SSE 11.3 km/h 19.3 km/h 65 % 0 mm
19:45 31.7 °C 24 °C 1011.1 hPa SSE 9.7 km/h 20.9 km/h 64 % 0 mm
19:50 31.6 °C 24.2 °C 1011.1 hPa ESE 12.9 km/h 20.9 km/h 65 % 0 mm
19:55 31.4 °C 24 °C 1011.1 hPa South 14.5 km/h 20.9 km/h 65 % 0 mm
20:00 31.3 °C 23.9 °C 1011.1 hPa South 11.3 km/h 19.3 km/h 65 % 0 mm
20:05 31.2 °C 24.1 °C 1011.1 hPa SE 8 km/h 19.3 km/h 66 % 0 mm
20:10 31.1 °C 24 °C 1011.1 hPa SE 12.9 km/h 19.3 km/h 66 % 0 mm
20:15 30.9 °C 23.8 °C 1011.1 hPa SSW 6.4 km/h 19.3 km/h 66 % 0 mm
20:20 30.8 °C 24 °C 1011.4 hPa SE 4.8 km/h 19.3 km/h 67 % 0 mm
20:25 30.7 °C 23.9 °C 1011.4 hPa South 16.1 km/h 16.1 km/h 67 % 0 mm
20:30 30.5 °C 23.9 °C 1011.4 hPa SSW 11.3 km/h 19.3 km/h 68 % 0 mm
20:35 30.4 °C 24.1 °C 1011.4 hPa SSW 6.4 km/h 19.3 km/h 69 % 0 mm
20:40 30.2 °C 23.9 °C 1011.4 hPa ESE 6.4 km/h 19.3 km/h 69 % 0 mm
20:45 30.2 °C 23.9 °C 1011.4 hPa SSW 4.8 km/h 17.7 km/h 69 % 0 mm
20:50 30.1 °C 23.8 °C 1011.4 hPa ESE 8 km/h 17.7 km/h 69 % 0 mm
20:55 30 °C 23.7 °C 1011.4 hPa South 9.7 km/h 17.7 km/h 69 % 0 mm
21:00 29.8 °C 23.7 °C 1011.7 hPa South 4.8 km/h 14.5 km/h 70 % 0 mm
21:01 29.8 °C 23.7 °C 1011.7 hPa SW 8 km/h 14.5 km/h 70 % 0 mm
21:06 29.7 °C 23.9 °C 1011.7 hPa SW 12.9 km/h 14.5 km/h 71 % 0 mm
21:11 29.6 °C 23.8 °C 1011.4 hPa SSW 4.8 km/h 17.7 km/h 71 % 0 mm
21:16 29.5 °C 23.7 °C 1011.4 hPa SE 8 km/h 17.7 km/h 71 % 0 mm
21:21 29.4 °C 23.8 °C 1011.4 hPa SSE 9.7 km/h 17.7 km/h 72 % 0 mm
21:26 29.3 °C 23.7 °C 1011.7 hPa SSW 6.4 km/h 14.5 km/h 72 % 0 mm
21:31 29.2 °C 23.6 °C 1011.7 hPa South 6.4 km/h 16.1 km/h 72 % 0 mm
21:36 29.1 °C 23.8 °C 1011.4 hPa SSW 19.3 km/h 19.3 km/h 73 % 0 mm
21:41 28.9 °C 23.6 °C 1011.4 hPa SE 6.4 km/h 19.3 km/h 73 % 0 mm
21:46 28.8 °C 23.5 °C 1011.4 hPa South 8 km/h 19.3 km/h 73 % 0 mm
21:51 28.8 °C 23.7 °C 1011.7 hPa South 6.4 km/h 19.3 km/h 74 % 0 mm
21:56 28.7 °C 23.6 °C 1011.7 hPa SSE 9.7 km/h 12.9 km/h 74 % 0 mm
22:01 28.6 °C 23.7 °C 1011.7 hPa South 6.4 km/h 12.9 km/h 75 % 0 mm
22:06 28.4 °C 23.5 °C 1011.7 hPa SSW 6.4 km/h 12.9 km/h 75 % 0 mm
22:11 28.3 °C 23.7 °C 1012.1 hPa SSW 1.6 km/h 12.9 km/h 76 % 0 mm
22:16 28.2 °C 23.6 °C 1012.1 hPa SSW 8 km/h 12.9 km/h 76 % 0 mm
22:21 28.2 °C 23.8 °C 1012.1 hPa SSW 6.4 km/h 12.9 km/h 77 % 0 mm
22:26 28.1 °C 23.7 °C 1012.1 hPa SSW 4.8 km/h 16.1 km/h 77 % 0 mm
22:31 28.1 °C 23.7 °C 1012.1 hPa South 3.2 km/h 16.1 km/h 77 % 0 mm
22:36 27.9 °C 23.7 °C 1012.4 hPa SSE 1.6 km/h 16.1 km/h 78 % 0 mm
22:41 27.8 °C 23.6 °C 1012.4 hPa SE 4.8 km/h 14.5 km/h 78 % 0 mm
22:46 27.8 °C 23.8 °C 1012.4 hPa South 8 km/h 14.5 km/h 79 % 0 mm
22:51 27.7 °C 23.7 °C 1012.4 hPa SSW 6.4 km/h 14.5 km/h 79 % 0 mm
22:56 27.7 °C 23.7 °C 1012.4 hPa SW 9.7 km/h 14.5 km/h 79 % 0 mm
23:01 27.6 °C 23.6 °C 1012.4 hPa SW 6.4 km/h 14.5 km/h 79 % 0 mm
23:06 27.5 °C 23.7 °C 1012.8 hPa SSW 4.8 km/h 14.5 km/h 80 % 0 mm
23:11 27.4 °C 23.6 °C 1012.8 hPa SE 3.2 km/h 11.3 km/h 80 % 0 mm
23:12 27.4 °C 23.6 °C 1012.8 hPa South 3.2 km/h 11.3 km/h 80 % 0 mm
23:17 27.4 °C 23.8 °C 1012.8 hPa South 4.8 km/h 9.7 km/h 81 % 0 mm
23:22 27.3 °C 23.7 °C 1012.8 hPa SSE 6.4 km/h 9.7 km/h 81 % 0 mm
23:27 27.2 °C 23.9 °C 1012.8 hPa South 3.2 km/h 9.7 km/h 82 % 0 mm
23:32 27.2 °C 23.9 °C 1012.8 hPa SSW 4.8 km/h 9.7 km/h 82 % 0 mm
23:37 27.1 °C 23.8 °C 1012.8 hPa South 3.2 km/h 9.7 km/h 82 % 0 mm
23:42 27.1 °C 24 °C 1013.1 hPa SE 3.2 km/h 8 km/h 83 % 0 mm
23:47 27 °C 23.9 °C 1013.1 hPa SSW 3.2 km/h 8 km/h 83 % 0 mm
23:52 26.9 °C 23.8 °C 1013.1 hPa SSW 3.2 km/h 8 km/h 83 % 0 mm
23:57 26.9 °C 24 °C 1013.1 hPa Calm   6.4 km/h 84 % 0 mm
Spring, Texas: Villages of Bridgestone
Compliments of Weather Underground - 2.75 mb

Script developed by  Jim McMurry - jmcmurry@mwt.net Adapted for the template by  Wim van der Kuil - Leuven-Template.eu

You find our weather info also at:

UK Metoffice

WeatherCloud

Weather Underground

Mid-South Weather Network

AWEKAS

Citizen Weather Observer Program (CWOP)

HAMweather, WeatherForYou, PWS Weather

Equipment we use:

Weather-station
Davis Vantage Vue

Weather-program
Meteohub

Weather-server
Debian 7.9 x86 (Guest)

Provider
DreamHost

Davis Vantage Vue

Meteohub

Debian 7.9 x86 (Guest)

DreamHost